Year,Month,Day,Hour,Minute,Value (Times are PST for temperature in C)
2011,05,24,00,00,7.30
2011,05,24,00,01,7.30
2011,05,24,00,02,7.30
2011,05,24,00,03,7.30
2011,05,24,00,04,7.40
2011,05,24,00,05,7.40
2011,05,24,00,06,7.40
2011,05,24,00,07,7.40
2011,05,24,00,08,7.40
2011,05,24,00,09,7.40
2011,05,24,00,10,7.40
2011,05,24,00,11,7.40
2011,05,24,00,12,7.40
2011,05,24,00,13,7.40
2011,05,24,00,14,7.30
2011,05,24,00,15,7.30
2011,05,24,00,16,7.30
2011,05,24,00,17,7.30
2011,05,24,00,18,7.30
2011,05,24,00,19,7.30
2011,05,24,00,20,7.30
2011,05,24,00,21,7.30
2011,05,24,00,22,7.30
2011,05,24,00,23,7.30
2011,05,24,00,24,7.20
2011,05,24,00,25,7.20
2011,05,24,00,26,7.20
2011,05,24,00,27,7.20
2011,05,24,00,28,7.20
2011,05,24,00,29,7.20
2011,05,24,00,30,7.20
2011,05,24,00,31,7.20
2011,05,24,00,32,7.20
2011,05,24,00,33,7.20
2011,05,24,00,34,7.20
2011,05,24,00,35,7.20
2011,05,24,00,36,7.20
2011,05,24,00,37,7.20
2011,05,24,00,38,7.10
2011,05,24,00,39,7.10
2011,05,24,00,40,7.10
2011,05,24,00,41,7.10
2011,05,24,00,42,7.10
2011,05,24,00,43,7.10
2011,05,24,00,44,7.10
2011,05,24,00,45,7.10
2011,05,24,00,46,7.10
2011,05,24,00,47,7.10
2011,05,24,00,48,7.10
2011,05,24,00,49,7.10
2011,05,24,00,50,7.10
2011,05,24,00,51,7.10
2011,05,24,00,52,7.10
2011,05,24,00,53,7.10
2011,05,24,00,54,7.10
2011,05,24,00,55,7.10
2011,05,24,00,56,7.20
2011,05,24,00,57,7.20
2011,05,24,00,58,7.20
2011,05,24,00,59,7.20
2011,05,24,01,00,7.30
2011,05,24,01,01,7.30
2011,05,24,01,02,7.30
2011,05,24,01,03,7.30
2011,05,24,01,04,7.30
2011,05,24,01,05,7.30
2011,05,24,01,06,7.30
2011,05,24,01,07,7.30
2011,05,24,01,08,7.30
2011,05,24,01,09,7.20
2011,05,24,01,10,7.20
2011,05,24,01,11,7.20
2011,05,24,01,12,7.20
2011,05,24,01,13,7.20
2011,05,24,01,14,7.20
2011,05,24,01,15,7.20
2011,05,24,01,16,7.20
2011,05,24,01,17,7.20
2011,05,24,01,18,7.20
2011,05,24,01,19,7.20
2011,05,24,01,20,7.20
2011,05,24,01,21,7.20
2011,05,24,01,22,7.20
2011,05,24,01,23,7.10
2011,05,24,01,24,7.10
2011,05,24,01,25,7.10
2011,05,24,01,26,7.10
2011,05,24,01,27,7.10
2011,05,24,01,28,7.10
2011,05,24,01,29,7.00
2011,05,24,01,30,7.00
2011,05,24,01,31,7.00
2011,05,24,01,32,7.00
2011,05,24,01,33,7.00
2011,05,24,01,34,6.90
2011,05,24,01,35,6.90
2011,05,24,01,36,6.90
2011,05,24,01,37,6.90
2011,05,24,01,38,6.90
2011,05,24,01,39,6.90
2011,05,24,01,40,6.80
2011,05,24,01,41,6.80
2011,05,24,01,42,6.80
2011,05,24,01,43,6.80
2011,05,24,01,44,6.80
2011,05,24,01,45,6.80
2011,05,24,01,46,6.70
2011,05,24,01,47,6.70
2011,05,24,01,48,6.70
2011,05,24,01,49,6.70
2011,05,24,01,50,6.70
2011,05,24,01,51,6.60
2011,05,24,01,52,6.60
2011,05,24,01,53,6.60
2011,05,24,01,54,6.60
2011,05,24,01,55,6.60
2011,05,24,01,56,6.60
2011,05,24,01,57,6.60
2011,05,24,01,58,6.50
2011,05,24,01,59,6.50
2011,05,24,02,00,6.50
2011,05,24,02,01,6.50
2011,05,24,02,02,6.40
2011,05,24,02,03,6.40
2011,05,24,02,04,6.40
2011,05,24,02,05,6.40
2011,05,24,02,06,6.40
2011,05,24,02,07,6.40
2011,05,24,02,08,6.40
2011,05,24,02,09,6.40
2011,05,24,02,10,6.30
2011,05,24,02,11,6.30
2011,05,24,02,12,6.30
2011,05,24,02,13,6.30
2011,05,24,02,14,6.30
2011,05,24,02,15,6.30
2011,05,24,02,16,6.30
2011,05,24,02,17,6.30
2011,05,24,02,18,6.30
2011,05,24,02,19,6.30
2011,05,24,02,20,6.30
2011,05,24,02,21,6.30
2011,05,24,02,22,6.30
2011,05,24,02,23,6.30
2011,05,24,02,24,6.30
2011,05,24,02,25,6.30
2011,05,24,02,26,6.30
2011,05,24,02,27,6.30
2011,05,24,02,28,6.30
2011,05,24,02,29,6.30
2011,05,24,02,30,6.30
2011,05,24,02,31,6.30
2011,05,24,02,32,6.30
2011,05,24,02,33,6.30
2011,05,24,02,34,6.30
2011,05,24,02,35,6.20
2011,05,24,02,36,6.20
2011,05,24,02,37,6.20
2011,05,24,02,38,6.20
2011,05,24,02,39,6.20
2011,05,24,02,40,6.10
2011,05,24,02,41,6.10
2011,05,24,02,42,6.10
2011,05,24,02,43,6.10
2011,05,24,02,44,6.10
2011,05,24,02,45,6.10
2011,05,24,02,46,6.10
2011,05,24,02,47,6.10
2011,05,24,02,48,6.10
2011,05,24,02,49,6.10
2011,05,24,02,50,6.10
2011,05,24,02,51,6.10
2011,05,24,02,52,6.10
2011,05,24,02,53,6.10
2011,05,24,02,54,6.10
2011,05,24,02,55,6.10
2011,05,24,02,56,6.10
2011,05,24,02,57,6.10
2011,05,24,02,58,6.10
2011,05,24,02,59,6.10
2011,05,24,03,00,6.00
2011,05,24,03,01,6.00
2011,05,24,03,02,5.90
2011,05,24,03,03,5.90
2011,05,24,03,04,5.90
2011,05,24,03,05,5.90
2011,05,24,03,06,5.80
2011,05,24,03,07,5.80
2011,05,24,03,08,5.80
2011,05,24,03,09,5.80
2011,05,24,03,10,5.80
2011,05,24,03,11,5.80
2011,05,24,03,12,5.70
2011,05,24,03,13,5.70
2011,05,24,03,14,5.70
2011,05,24,03,15,5.70
2011,05,24,03,16,5.70
2011,05,24,03,17,5.70
2011,05,24,03,18,5.70
2011,05,24,03,19,5.70
2011,05,24,03,20,5.70
2011,05,24,03,21,5.70
2011,05,24,03,22,5.70
2011,05,24,03,23,5.70
2011,05,24,03,24,5.70
2011,05,24,03,25,5.60
2011,05,24,03,26,5.60
2011,05,24,03,27,5.60
2011,05,24,03,28,5.60
2011,05,24,03,29,5.60
2011,05,24,03,30,5.60
2011,05,24,03,31,5.60
2011,05,24,03,32,5.60
2011,05,24,03,33,5.50
2011,05,24,03,34,5.50
2011,05,24,03,35,5.50
2011,05,24,03,36,5.50
2011,05,24,03,37,5.40
2011,05,24,03,38,5.40
2011,05,24,03,39,5.40
2011,05,24,03,40,5.40
2011,05,24,03,41,5.40
2011,05,24,03,42,5.40
2011,05,24,03,43,5.40
2011,05,24,03,44,5.40
2011,05,24,03,45,5.40
2011,05,24,03,46,5.30
2011,05,24,03,47,5.30
2011,05,24,03,48,5.30
2011,05,24,03,49,5.30
2011,05,24,03,50,5.30
2011,05,24,03,51,5.30
2011,05,24,03,52,5.30
2011,05,24,03,53,5.30
2011,05,24,03,54,5.30
2011,05,24,03,55,5.30
2011,05,24,03,56,5.40
2011,05,24,03,57,5.40
2011,05,24,03,58,5.40
2011,05,24,03,59,5.30
2011,05,24,04,00,5.30
2011,05,24,04,01,5.30
2011,05,24,04,02,5.30
2011,05,24,04,03,5.30
2011,05,24,04,04,5.30
2011,05,24,04,05,5.30
2011,05,24,04,06,5.30
2011,05,24,04,07,5.30
2011,05,24,04,08,5.30
2011,05,24,04,09,5.30
2011,05,24,04,10,5.30
2011,05,24,04,11,5.20
2011,05,24,04,12,5.20
2011,05,24,04,13,5.20
2011,05,24,04,14,5.20
2011,05,24,04,15,5.20
2011,05,24,04,16,5.20
2011,05,24,04,17,5.20
2011,05,24,04,18,5.20
2011,05,24,04,19,5.10
2011,05,24,04,20,5.10
2011,05,24,04,21,5.10
2011,05,24,04,22,5.10
2011,05,24,04,23,5.10
2011,05,24,04,24,5.10
2011,05,24,04,25,5.10
2011,05,24,04,26,5.00
2011,05,24,04,27,5.00
2011,05,24,04,28,5.00
2011,05,24,04,29,5.00
2011,05,24,04,30,5.00
2011,05,24,04,31,5.00
2011,05,24,04,32,5.00
2011,05,24,04,33,5.00
2011,05,24,04,34,5.00
2011,05,24,04,35,4.90
2011,05,24,04,36,4.90
2011,05,24,04,37,4.90
2011,05,24,04,38,4.90
2011,05,24,04,39,4.90
2011,05,24,04,40,4.90
2011,05,24,04,41,4.90
2011,05,24,04,42,4.90
2011,05,24,04,43,4.90
2011,05,24,04,44,4.80
2011,05,24,04,45,4.80
2011,05,24,04,46,4.80
2011,05,24,04,47,4.80
2011,05,24,04,48,4.80
2011,05,24,04,49,4.80
2011,05,24,04,50,4.80
2011,05,24,04,51,4.80
2011,05,24,04,52,4.80
2011,05,24,04,53,4.80
2011,05,24,04,54,4.80
2011,05,24,04,55,4.80
2011,05,24,04,56,4.80
2011,05,24,04,57,4.80
2011,05,24,04,58,4.80
2011,05,24,04,59,4.80
2011,05,24,05,00,4.80
2011,05,24,05,01,4.80
2011,05,24,05,02,4.80
2011,05,24,05,03,4.80
2011,05,24,05,04,4.80
2011,05,24,05,05,4.80
2011,05,24,05,06,4.80
2011,05,24,05,07,4.80
2011,05,24,05,08,4.80
2011,05,24,05,09,4.70
2011,05,24,05,10,4.70
2011,05,24,05,11,4.70
2011,05,24,05,12,4.70
2011,05,24,05,13,4.70
2011,05,24,05,14,4.70
2011,05,24,05,15,4.70
2011,05,24,05,16,4.70
2011,05,24,05,17,4.70
2011,05,24,05,18,4.70
2011,05,24,05,19,4.70
2011,05,24,05,20,4.70
2011,05,24,05,21,4.70
2011,05,24,05,22,4.70
2011,05,24,05,23,4.70
2011,05,24,05,24,4.70
2011,05,24,05,25,4.70
2011,05,24,05,26,4.70
2011,05,24,05,27,4.70
2011,05,24,05,28,4.70
2011,05,24,05,29,4.70
2011,05,24,05,30,4.70
2011,05,24,05,31,4.70
2011,05,24,05,32,4.70
2011,05,24,05,33,4.70
2011,05,24,05,34,4.60
2011,05,24,05,35,4.70
2011,05,24,05,36,4.70
2011,05,24,05,37,4.70
2011,05,24,05,38,4.70
2011,05,24,05,39,4.70
2011,05,24,05,40,4.70
2011,05,24,05,41,4.70
2011,05,24,05,42,4.70
2011,05,24,05,43,4.70
2011,05,24,05,44,4.70
2011,05,24,05,45,4.80
2011,05,24,05,46,4.80
2011,05,24,05,47,4.80
2011,05,24,05,48,4.90
2011,05,24,05,49,4.90
2011,05,24,05,50,4.90
2011,05,24,05,51,4.90
2011,05,24,05,52,5.00
2011,05,24,05,53,5.00
2011,05,24,05,54,5.00
2011,05,24,05,55,5.00
2011,05,24,05,56,5.10
2011,05,24,05,57,5.10
2011,05,24,05,58,5.10
2011,05,24,05,59,5.10
2011,05,24,06,00,5.10
2011,05,24,06,01,5.10
2011,05,24,06,02,5.10
2011,05,24,06,03,5.10
2011,05,24,06,04,5.10
2011,05,24,06,05,5.20
2011,05,24,06,06,5.20
2011,05,24,06,07,5.20
2011,05,24,06,08,5.20
2011,05,24,06,09,5.20
2011,05,24,06,10,5.30
2011,05,24,06,11,5.30
2011,05,24,06,12,5.30
2011,05,24,06,13,5.30
2011,05,24,06,14,5.40
2011,05,24,06,15,5.40
2011,05,24,06,16,5.40
2011,05,24,06,17,5.50
2011,05,24,06,18,5.50
2011,05,24,06,19,5.60
2011,05,24,06,20,5.70
2011,05,24,06,21,5.70
2011,05,24,06,22,5.70
2011,05,24,06,23,5.80
2011,05,24,06,24,5.80
2011,05,24,06,25,5.80
2011,05,24,06,26,5.90
2011,05,24,06,27,5.90
2011,05,24,06,28,5.90
2011,05,24,06,29,6.00
2011,05,24,06,30,6.10
2011,05,24,06,31,6.10
2011,05,24,06,32,6.10
2011,05,24,06,33,6.10
2011,05,24,06,34,6.20
2011,05,24,06,35,6.20
2011,05,24,06,36,6.30
2011,05,24,06,37,6.30
2011,05,24,06,38,6.40
2011,05,24,06,39,6.50
2011,05,24,06,40,6.50
2011,05,24,06,41,6.60
2011,05,24,06,42,6.60
2011,05,24,06,43,6.60
2011,05,24,06,44,6.70
2011,05,24,06,45,6.70
2011,05,24,06,46,6.80
2011,05,24,06,47,6.80
2011,05,24,06,48,6.90
2011,05,24,06,49,6.90
2011,05,24,06,50,7.00
2011,05,24,06,51,7.10
2011,05,24,06,52,7.20
2011,05,24,06,53,7.30
2011,05,24,06,54,7.30
2011,05,24,06,55,7.40
2011,05,24,06,56,7.50
2011,05,24,06,57,7.60
2011,05,24,06,58,7.70
2011,05,24,06,59,7.80
2011,05,24,07,00,7.90
2011,05,24,07,01,7.90
2011,05,24,07,02,8.00
2011,05,24,07,03,8.00
2011,05,24,07,04,8.10
2011,05,24,07,05,8.10
2011,05,24,07,06,8.10
2011,05,24,07,07,8.10
2011,05,24,07,08,8.20
2011,05,24,07,09,8.20
2011,05,24,07,10,8.30
2011,05,24,07,11,8.30
2011,05,24,07,12,8.40
2011,05,24,07,13,8.40
2011,05,24,07,14,8.50
2011,05,24,07,15,8.50
2011,05,24,07,16,8.60
2011,05,24,07,17,8.70
2011,05,24,07,18,8.80
2011,05,24,07,19,8.90
2011,05,24,07,20,8.90
2011,05,24,07,21,8.90
2011,05,24,07,22,8.90
2011,05,24,07,23,9.10
2011,05,24,07,24,9.40
2011,05,24,07,25,9.50
2011,05,24,07,26,9.60
2011,05,24,07,27,9.70
2011,05,24,07,28,9.80
2011,05,24,07,29,9.80
2011,05,24,07,30,9.90
2011,05,24,07,31,10.00
2011,05,24,07,32,10.10
2011,05,24,07,33,10.10
2011,05,24,07,34,10.20
2011,05,24,07,35,10.20
2011,05,24,07,36,10.30
2011,05,24,07,37,10.40
2011,05,24,07,38,10.40
2011,05,24,07,39,10.50
2011,05,24,07,40,10.50
2011,05,24,07,41,10.60
2011,05,24,07,42,10.70
2011,05,24,07,43,10.70
2011,05,24,07,44,10.80
2011,05,24,07,45,10.80
2011,05,24,07,46,10.80
2011,05,24,07,47,10.90
2011,05,24,07,48,10.90
2011,05,24,07,49,10.90
2011,05,24,07,50,10.90
2011,05,24,07,51,11.00
2011,05,24,07,52,11.10
2011,05,24,07,53,11.10
2011,05,24,07,54,11.10
2011,05,24,07,55,11.20
2011,05,24,07,56,11.20
2011,05,24,07,57,11.20
2011,05,24,07,58,11.20
2011,05,24,07,59,11.30
2011,05,24,08,00,11.30
2011,05,24,08,01,11.30
2011,05,24,08,02,11.40
2011,05,24,08,03,11.40
2011,05,24,08,04,11.40
2011,05,24,08,05,11.50
2011,05,24,08,06,11.50
2011,05,24,08,07,11.60
2011,05,24,08,08,11.60
2011,05,24,08,09,11.60
2011,05,24,08,10,11.70
2011,05,24,08,11,11.70
2011,05,24,08,12,11.80
2011,05,24,08,13,11.80
2011,05,24,08,14,11.90
2011,05,24,08,15,11.90
2011,05,24,08,16,12.00
2011,05,24,08,17,12.10
2011,05,24,08,18,12.10
2011,05,24,08,19,12.10
2011,05,24,08,20,12.10
2011,05,24,08,21,12.10
2011,05,24,08,22,12.10
2011,05,24,08,23,12.10
2011,05,24,08,24,12.10
2011,05,24,08,25,12.10
2011,05,24,08,26,12.00
2011,05,24,08,27,12.00
2011,05,24,08,28,12.00
2011,05,24,08,29,12.00
2011,05,24,08,30,12.10
2011,05,24,08,31,12.10
2011,05,24,08,32,12.20
2011,05,24,08,33,12.20
2011,05,24,08,34,12.30
2011,05,24,08,35,12.30
2011,05,24,08,36,12.30
2011,05,24,08,37,12.30
2011,05,24,08,38,12.30
2011,05,24,08,39,12.30
2011,05,24,08,40,12.30
2011,05,24,08,41,12.30
2011,05,24,08,42,12.30
2011,05,24,08,43,12.30
2011,05,24,08,44,12.30
2011,05,24,08,45,12.30
2011,05,24,08,46,12.40
2011,05,24,08,47,12.30
2011,05,24,08,48,12.30
2011,05,24,08,49,12.30
2011,05,24,08,50,12.20
2011,05,24,08,51,12.20
2011,05,24,08,52,12.20
2011,05,24,08,53,12.20
2011,05,24,08,54,12.20
2011,05,24,08,55,12.20
2011,05,24,08,56,12.20
2011,05,24,08,57,12.20
2011,05,24,08,58,12.20
2011,05,24,08,59,12.10
2011,05,24,09,00,12.10
2011,05,24,09,01,12.10
2011,05,24,09,02,12.10
2011,05,24,09,03,12.10
2011,05,24,09,04,12.10
2011,05,24,09,05,12.00
2011,05,24,09,06,12.00
2011,05,24,09,07,11.90
2011,05,24,09,08,11.80
2011,05,24,09,09,11.80
2011,05,24,09,10,11.80
2011,05,24,09,11,11.80
2011,05,24,09,12,11.80
2011,05,24,09,13,11.80
2011,05,24,09,14,11.90
2011,05,24,09,15,11.90
2011,05,24,09,16,11.90
2011,05,24,09,17,11.90
2011,05,24,09,18,11.90
2011,05,24,09,19,11.90
2011,05,24,09,20,11.90
2011,05,24,09,21,11.90
2011,05,24,09,22,11.90
2011,05,24,09,23,11.90
2011,05,24,09,24,11.90
2011,05,24,09,25,11.90
2011,05,24,09,26,11.90
2011,05,24,09,27,12.00
2011,05,24,09,28,12.00
2011,05,24,09,29,11.90
2011,05,24,09,30,11.90
2011,05,24,09,31,11.90
2011,05,24,09,32,11.90
2011,05,24,09,33,11.90
2011,05,24,09,34,11.90
2011,05,24,09,35,11.80
2011,05,24,09,36,11.80
2011,05,24,09,37,11.80
2011,05,24,09,38,11.80
2011,05,24,09,39,11.70
2011,05,24,09,40,11.80
2011,05,24,09,41,11.80
2011,05,24,09,42,11.80
2011,05,24,09,43,11.80
2011,05,24,09,44,11.90
2011,05,24,09,45,11.90
2011,05,24,09,46,11.90
2011,05,24,09,47,12.00
2011,05,24,09,48,12.10
2011,05,24,09,49,12.20
2011,05,24,09,50,12.30
2011,05,24,09,51,12.30
2011,05,24,09,52,12.40
2011,05,24,09,53,12.40
2011,05,24,09,54,12.40
2011,05,24,09,55,12.50
2011,05,24,09,56,12.50
2011,05,24,09,57,12.60
2011,05,24,09,58,12.60
2011,05,24,09,59,12.70
2011,05,24,10,00,12.70
2011,05,24,10,01,12.70
2011,05,24,10,02,12.80
2011,05,24,10,03,12.80
2011,05,24,10,04,12.80
2011,05,24,10,05,12.90
2011,05,24,10,06,12.90
2011,05,24,10,07,12.90
2011,05,24,10,08,12.90
2011,05,24,10,09,12.90
2011,05,24,10,10,12.90
2011,05,24,10,11,12.90
2011,05,24,10,12,12.90
2011,05,24,10,13,12.90
2011,05,24,10,14,12.90
2011,05,24,10,15,12.90
2011,05,24,10,16,12.90
2011,05,24,10,17,12.90
2011,05,24,10,18,13.00
2011,05,24,10,19,13.00
2011,05,24,10,20,13.00
2011,05,24,10,21,13.00
2011,05,24,10,22,13.00
2011,05,24,10,23,13.10
2011,05,24,10,24,13.20
2011,05,24,10,25,13.20
2011,05,24,10,26,13.20
2011,05,24,10,27,13.30
2011,05,24,10,28,13.30
2011,05,24,10,29,13.40
2011,05,24,10,30,13.50
2011,05,24,10,31,13.60
2011,05,24,10,32,13.60
2011,05,24,10,33,13.70
2011,05,24,10,34,13.70
2011,05,24,10,35,13.70
2011,05,24,10,36,13.80
2011,05,24,10,37,13.80
2011,05,24,10,38,13.90
2011,05,24,10,39,13.90
2011,05,24,10,40,14.00
2011,05,24,10,41,14.00
2011,05,24,10,42,14.10
2011,05,24,10,43,14.20
2011,05,24,10,44,14.20
2011,05,24,10,45,14.30
2011,05,24,10,46,14.30
2011,05,24,10,47,14.40
2011,05,24,10,48,14.30
2011,05,24,10,49,14.30
2011,05,24,10,50,14.30
2011,05,24,10,51,14.20
2011,05,24,10,52,14.20
2011,05,24,10,53,14.20
2011,05,24,10,54,14.20
2011,05,24,10,55,14.10
2011,05,24,10,56,14.10
2011,05,24,10,57,14.10
2011,05,24,10,58,14.10
2011,05,24,10,59,14.10
2011,05,24,11,00,14.10
2011,05,24,11,01,14.20
2011,05,24,11,02,14.10
2011,05,24,11,03,14.10
2011,05,24,11,04,14.10
2011,05,24,11,05,14.10
2011,05,24,11,06,14.20
2011,05,24,11,07,14.30
2011,05,24,11,08,14.30
2011,05,24,11,09,14.30
2011,05,24,11,10,14.30
2011,05,24,11,11,14.40
2011,05,24,11,12,14.40
2011,05,24,11,13,14.30
2011,05,24,11,14,14.20
2011,05,24,11,15,14.20
2011,05,24,11,16,14.10
2011,05,24,11,17,14.10
2011,05,24,11,18,14.00
2011,05,24,11,19,14.00
2011,05,24,11,20,14.00
2011,05,24,11,21,13.90
2011,05,24,11,22,13.90
2011,05,24,11,23,13.90
2011,05,24,11,24,13.90
2011,05,24,11,25,14.00
2011,05,24,11,26,14.00
2011,05,24,11,27,14.10
2011,05,24,11,28,14.10
2011,05,24,11,29,14.20
2011,05,24,11,30,14.20
2011,05,24,11,31,14.10
2011,05,24,11,32,14.10
2011,05,24,11,33,14.10
2011,05,24,11,34,14.20
2011,05,24,11,35,14.20
2011,05,24,11,36,14.20
2011,05,24,11,37,14.20
2011,05,24,11,38,14.20
2011,05,24,11,39,14.20
2011,05,24,11,40,14.20
2011,05,24,11,41,14.20
2011,05,24,11,42,14.20
2011,05,24,11,43,14.20
2011,05,24,11,44,14.30
2011,05,24,11,45,14.30
2011,05,24,11,46,14.30
2011,05,24,11,47,14.30
2011,05,24,11,48,14.40
2011,05,24,11,49,14.40
2011,05,24,11,50,14.40
2011,05,24,11,51,14.40
2011,05,24,11,52,14.40
2011,05,24,11,53,14.50
2011,05,24,11,54,14.60
2011,05,24,11,55,14.60
2011,05,24,11,56,14.60
2011,05,24,11,57,14.60
2011,05,24,11,58,14.50
2011,05,24,11,59,14.50
2011,05,24,12,00,14.50
2011,05,24,12,01,14.50
2011,05,24,12,02,14.50
2011,05,24,12,03,14.60
2011,05,24,12,04,14.70
2011,05,24,12,05,14.70
2011,05,24,12,06,14.70
2011,05,24,12,07,14.60
2011,05,24,12,08,14.70
2011,05,24,12,09,14.70
2011,05,24,12,10,14.80
2011,05,24,12,11,14.80
2011,05,24,12,12,14.80
2011,05,24,12,13,14.80
2011,05,24,12,14,14.80
2011,05,24,12,15,14.70
2011,05,24,12,16,14.70
2011,05,24,12,17,14.70
2011,05,24,12,18,14.60
2011,05,24,12,19,14.50
2011,05,24,12,20,14.50
2011,05,24,12,21,14.40
2011,05,24,12,22,14.30
2011,05,24,12,23,14.30
2011,05,24,12,24,14.30
2011,05,24,12,25,14.30
2011,05,24,12,26,14.30
2011,05,24,12,27,14.30
2011,05,24,12,28,14.20
2011,05,24,12,29,14.10
2011,05,24,12,30,14.10
2011,05,24,12,31,14.00
2011,05,24,12,32,14.00
2011,05,24,12,33,14.00
2011,05,24,12,34,14.00
2011,05,24,12,35,13.90
2011,05,24,12,36,13.90
2011,05,24,12,37,13.90
2011,05,24,12,38,13.90
2011,05,24,12,39,13.90
2011,05,24,12,40,13.80
2011,05,24,12,41,13.80
2011,05,24,12,42,13.90
2011,05,24,12,43,13.90
2011,05,24,12,44,13.90
2011,05,24,12,45,13.90
2011,05,24,12,46,13.90
2011,05,24,12,47,13.90
2011,05,24,12,48,13.90
2011,05,24,12,49,13.90
2011,05,24,12,50,13.90
2011,05,24,12,51,13.90
2011,05,24,12,52,13.80
2011,05,24,12,53,13.80
2011,05,24,12,54,13.80
2011,05,24,12,55,13.70
2011,05,24,12,56,13.70
2011,05,24,12,57,13.70
2011,05,24,12,58,13.70
2011,05,24,12,59,13.70
2011,05,24,13,00,13.70
2011,05,24,13,01,13.60
2011,05,24,13,02,13.70
2011,05,24,13,03,13.70
2011,05,24,13,04,13.70
2011,05,24,13,05,13.70
2011,05,24,13,06,13.70
2011,05,24,13,07,13.80
2011,05,24,13,08,13.80
2011,05,24,13,09,13.80
2011,05,24,13,10,13.90
2011,05,24,13,11,13.90
2011,05,24,13,12,13.90
2011,05,24,13,13,14.00
2011,05,24,13,14,14.00
2011,05,24,13,15,14.10
2011,05,24,13,16,14.10
2011,05,24,13,17,14.10
2011,05,24,13,18,14.20
2011,05,24,13,19,14.10
2011,05,24,13,20,14.10
2011,05,24,13,21,14.20
2011,05,24,13,22,14.20
2011,05,24,13,23,14.30
2011,05,24,13,24,14.30
2011,05,24,13,25,14.30
2011,05,24,13,26,14.30
2011,05,24,13,27,14.40
2011,05,24,13,28,14.40
2011,05,24,13,29,14.30
2011,05,24,13,30,14.30
2011,05,24,13,31,14.30
2011,05,24,13,32,14.30
2011,05,24,13,33,14.30
2011,05,24,13,34,14.30
2011,05,24,13,35,14.30
2011,05,24,13,36,14.30
2011,05,24,13,37,14.30
2011,05,24,13,38,14.30
2011,05,24,13,39,14.40
2011,05,24,13,40,14.40
2011,05,24,13,41,14.50
2011,05,24,13,42,14.60
2011,05,24,13,43,14.60
2011,05,24,13,44,14.60
2011,05,24,13,45,14.60
2011,05,24,13,46,14.60
2011,05,24,13,47,14.60
2011,05,24,13,48,14.50
2011,05,24,13,49,14.40
2011,05,24,13,50,14.30
2011,05,24,13,51,14.30
2011,05,24,13,52,14.20
2011,05,24,13,53,14.20
2011,05,24,13,54,14.10
2011,05,24,13,55,14.10
2011,05,24,13,56,14.10
2011,05,24,13,57,14.10
2011,05,24,13,58,14.10
2011,05,24,13,59,14.10
2011,05,24,14,00,14.00
2011,05,24,14,01,14.00
2011,05,24,14,02,13.90
2011,05,24,14,03,13.90
2011,05,24,14,04,13.90
2011,05,24,14,05,13.80
2011,05,24,14,06,13.80
2011,05,24,14,07,13.80
2011,05,24,14,08,13.80
2011,05,24,14,09,13.80
2011,05,24,14,10,13.80
2011,05,24,14,11,13.80
2011,05,24,14,12,13.80
2011,05,24,14,13,13.80
2011,05,24,14,14,13.80
2011,05,24,14,15,13.80
2011,05,24,14,16,13.80
2011,05,24,14,17,13.80
2011,05,24,14,18,13.80
2011,05,24,14,19,13.80
2011,05,24,14,20,13.80
2011,05,24,14,21,13.80
2011,05,24,14,22,13.80
2011,05,24,14,23,13.80
2011,05,24,14,24,13.80
2011,05,24,14,25,13.80
2011,05,24,14,26,13.80
2011,05,24,14,27,13.80
2011,05,24,14,28,13.80
2011,05,24,14,29,13.90
2011,05,24,14,30,13.90
2011,05,24,14,31,13.90
2011,05,24,14,32,13.80
2011,05,24,14,33,13.80
2011,05,24,14,34,13.80
2011,05,24,14,35,13.80
2011,05,24,14,36,13.80
2011,05,24,14,37,13.80
2011,05,24,14,38,13.80
2011,05,24,14,39,13.80
2011,05,24,14,40,13.80
2011,05,24,14,41,13.80
2011,05,24,14,42,13.90
2011,05,24,14,43,14.00
2011,05,24,14,44,14.00
2011,05,24,14,45,14.20
2011,05,24,14,46,14.30
2011,05,24,14,47,14.40
2011,05,24,14,48,14.60
2011,05,24,14,49,14.70
2011,05,24,14,50,14.80
2011,05,24,14,51,14.90
2011,05,24,14,52,15.00
2011,05,24,14,53,15.10
2011,05,24,14,54,15.20
2011,05,24,14,55,15.30
2011,05,24,14,56,15.30
2011,05,24,14,57,15.40
2011,05,24,14,58,15.40
2011,05,24,14,59,15.40
2011,05,24,15,00,15.30
2011,05,24,15,01,15.30
2011,05,24,15,02,15.30
2011,05,24,15,03,15.30
2011,05,24,15,04,15.20
2011,05,24,15,05,15.20
2011,05,24,15,06,15.20
2011,05,24,15,07,15.10
2011,05,24,15,08,15.10
2011,05,24,15,09,15.00
2011,05,24,15,10,15.00
2011,05,24,15,11,15.10
2011,05,24,15,12,15.10
2011,05,24,15,13,15.10
2011,05,24,15,14,15.00
2011,05,24,15,15,15.00
2011,05,24,15,16,15.00
2011,05,24,15,17,15.10
2011,05,24,15,18,15.10
2011,05,24,15,19,15.20
2011,05,24,15,20,15.20
2011,05,24,15,21,15.30
2011,05,24,15,22,15.30
2011,05,24,15,23,15.30
2011,05,24,15,24,15.40
2011,05,24,15,25,15.40
2011,05,24,15,26,15.40
2011,05,24,15,27,15.40
2011,05,24,15,28,15.40
2011,05,24,15,29,15.40
2011,05,24,15,30,15.40
2011,05,24,15,31,15.50
2011,05,24,15,32,15.50
2011,05,24,15,33,15.60
2011,05,24,15,34,15.60
2011,05,24,15,35,15.70
2011,05,24,15,36,15.70
2011,05,24,15,37,15.70
2011,05,24,15,38,15.70
2011,05,24,15,39,15.70
2011,05,24,15,40,15.70
2011,05,24,15,41,15.60
2011,05,24,15,42,15.60
2011,05,24,15,43,15.50
2011,05,24,15,44,15.40
2011,05,24,15,45,15.40
2011,05,24,15,46,15.30
2011,05,24,15,47,15.20
2011,05,24,15,48,15.10
2011,05,24,15,49,15.10
2011,05,24,15,50,15.10
2011,05,24,15,51,15.00
2011,05,24,15,52,15.00
2011,05,24,15,53,15.00
2011,05,24,15,54,14.90
2011,05,24,15,55,14.90
2011,05,24,15,56,14.90
2011,05,24,15,57,14.80
2011,05,24,15,58,14.80
2011,05,24,15,59,14.80
2011,05,24,16,00,14.80
2011,05,24,16,01,14.80
2011,05,24,16,02,14.80
2011,05,24,16,03,14.70
2011,05,24,16,04,14.70
2011,05,24,16,05,14.70
2011,05,24,16,06,14.70
2011,05,24,16,07,14.70
2011,05,24,16,08,14.70
2011,05,24,16,09,14.70
2011,05,24,16,10,14.70
2011,05,24,16,11,14.70
2011,05,24,16,12,14.70
2011,05,24,16,13,14.70
2011,05,24,16,14,14.70
2011,05,24,16,15,14.70
2011,05,24,16,16,14.70
2011,05,24,16,17,14.60
2011,05,24,16,18,14.60
2011,05,24,16,19,14.60
2011,05,24,16,20,14.60
2011,05,24,16,21,14.70
2011,05,24,16,22,14.70
2011,05,24,16,23,14.80
2011,05,24,16,24,14.90
2011,05,24,16,25,14.90
2011,05,24,16,26,15.00
2011,05,24,16,27,15.10
2011,05,24,16,28,15.10
2011,05,24,16,29,15.10
2011,05,24,16,30,15.10
2011,05,24,16,31,15.10
2011,05,24,16,32,15.10
2011,05,24,16,33,15.10
2011,05,24,16,34,15.10
2011,05,24,16,35,15.10
2011,05,24,16,36,15.10
2011,05,24,16,37,15.10
2011,05,24,16,38,15.10
2011,05,24,16,39,15.10
2011,05,24,16,40,15.10
2011,05,24,16,41,15.00
2011,05,24,16,42,15.00
2011,05,24,16,43,14.90
2011,05,24,16,44,14.90
2011,05,24,16,45,14.80
2011,05,24,16,46,14.80
2011,05,24,16,47,14.70
2011,05,24,16,48,14.60
2011,05,24,16,49,14.60
2011,05,24,16,50,14.50
2011,05,24,16,51,14.50
2011,05,24,16,52,14.50
2011,05,24,16,53,14.40
2011,05,24,16,54,14.40
2011,05,24,16,55,14.40
2011,05,24,16,56,14.40
2011,05,24,16,57,14.40
2011,05,24,16,58,14.50
2011,05,24,16,59,14.60
2011,05,24,17,00,14.60
2011,05,24,17,01,14.60
2011,05,24,17,02,14.60
2011,05,24,17,03,14.60
2011,05,24,17,04,14.60
2011,05,24,17,05,14.60
2011,05,24,17,06,14.60
2011,05,24,17,07,14.70
2011,05,24,17,08,14.70
2011,05,24,17,09,14.70
2011,05,24,17,10,14.70
2011,05,24,17,11,14.70
2011,05,24,17,12,14.70
2011,05,24,17,13,14.60
2011,05,24,17,14,14.60
2011,05,24,17,15,14.50
2011,05,24,17,16,14.50
2011,05,24,17,17,14.40
2011,05,24,17,18,14.40
2011,05,24,17,19,14.40
2011,05,24,17,20,14.40
2011,05,24,17,21,14.30
2011,05,24,17,22,14.30
2011,05,24,17,23,14.30
2011,05,24,17,24,14.30
2011,05,24,17,25,14.30
2011,05,24,17,26,14.40
2011,05,24,17,27,14.40
2011,05,24,17,28,14.40
2011,05,24,17,29,14.40
2011,05,24,17,30,14.40
2011,05,24,17,31,14.40
2011,05,24,17,32,14.40
2011,05,24,17,33,14.40
2011,05,24,17,34,14.40
2011,05,24,17,35,14.50
2011,05,24,17,36,14.50
2011,05,24,17,37,14.50
2011,05,24,17,38,14.50
2011,05,24,17,39,14.50